User: anonymous   Login
Location: Unspecified
(0.0000°N, 0.0000°E)
Time: 02:00:36
(UTC+00:00)
Language:

GONETS M 08 (M18) - Orbit

View from above orbital plane
View from above orbital plane
View from above satellite
View from above satellite

Ground track
Ground track

The orbit data is extracted from the following two-line orbital elements,

1 40061U 14036A   24107.57005531  .00000056  00000-0  32896-3 0  9997
2 40061  82.5072  79.2945 0031190  76.5156 283.9396 12.42943896444108
Epoch (UTC): 16 April 2024 13:40:52
Eccentricity: 0.0031190
inclination: 82.5072°
perigee height: 1469 km
apogee height: 1518 km
right ascension of ascending node: 79.2945°
argument of perigee: 76.5156°
revolutions per day: 12.42943896
mean anomaly at epoch: 283.9396°
orbit number at epoch: 44410

The dashed part of the orbit path shows where the satellite is in the earth's shadow,  

DLR